Погода в Кочки

Погода в Кочки : погода сейчас, прогноз погоды и архив. Всё, что Вы хотите узнать о погоде в Кочки!

Хотите узнать прогноз погоды в Кочки? Тогда Вам сюда: Погода в Кочки

Поиск расширенной информации на нашем сайте:

Другие новости

Новости СМИ2

Главная страница сайта

Новости сайта

03.07.2017

Напоминаем, что на нашем специализированном сайте Метеоцентр.Азия вы можете получить высокодетализированные автоматические прогнозы погоды по пунктам России, СНГ и мира в авиационном формате (включающие направление и скорость ветра, видимость, явления погоды, количество и форму облачности, нижнюю и верхнюю границу облачности).


Погода в Кочки - сегодня

Время (UTC), дата Ветер
(°,м/с) 
Видим.   Явления Облачность Т
(°С)
Тd
(°С)
f(%) Тe
(°С)
Pmin
(гПа)
dP
(гПа)
Po
(мм)
O2
(г/м3)
Тmin Tmax R s Состояние
почвы
09 18.09.17 290 (З) 3{12}  20000 м    9/5 1000 м верхняя 
[Cu hum|Ci sp]
+19.3 +5.6 41 +20  1009.3  -0.8  743  279           
12 18.09.17 270 (З) 20000 м    10/6 600 м кучево-дожд., средняя 
[Cb calv|Ac As]
+16.9 +5.5 47 +18  1008.9  -0.6  743  281    +19.5       
15 18.09.17 230 (ЮЗ) 20000 м    10/8 600 м кучево-дожд., средняя 
[Cb calv|Ac As]
+12.7 +6.9 68 +14  1009  -0.1  742  285           
18 18.09.17 250 (З) 20000 м  зарница  8/8 600 м кучево-дожд. 
[Cb cap]
+11.5 +5.8 68 +13  1009.2  0.1  743  286           
21 18.09.17 230 (ЮЗ) 20000 м    ясно 
+7.5 +5.1 85 +7  1009.3  -0.2  742  290           
00 19.09.17 220 (ЮЗ) 20000 м    9/8 600 м кучево-дожд., средняя 
[Cb calv|Ac As]
+7.3 +5.6 89 +7  1010.3  743  291  +5.9        сухая 
03 19.09.17 230 (ЮЗ) 20000 м  в посл. час ливневой дождь  6/3 600 м кучево-дожд., средняя 
[Cb calv|Ac As]
+10.8 +7.7 81 +10  1010.7  0.6  744  287           
06 19.09.17 270 (З) 20000 м  слаб. ливневой дождь  10/8 600 м кучево-дожд., средняя 
[Cb calv|Ac As]
+9.7 +8.3 91 +9  1012.5  1.7  745  288           
09 19.09.17 290 (З) 4{11}  20000 м  слаб. ливневой дождь  8/6 600 м кучево-дожд., средняя 
[Cb calv|Ac As]
+11.8 +6.9 72 +11  1013.5  1.2  746  287           
12 19.09.17 280 (З) 3{10}  20000 м  {ливн. осадки}  8/8 600 м кучево-дожд. 
[Cb calv]
+11 +5.8 70 +11  1015.3  1.6  747  288    +12.6     
15 19.09.17 270 (З) 20000 м    10/8 600 м кучево-дожд., средняя 
[Cb calv|Ac As]
+9.7 +5.4 75 +9  1017.7  2.3  749  290           
18 19.09.17 280 (З) 20000 м    10/6 600 м кучево-дожд., средняя 
[Cb calv|Ac As]
+8.3 +5.4 82 +8  1019  1.2  750  292           
21 19.09.17 290 (З) 20000 м    10/10 600 м кучево-дожд. 
[Cb calv]
+8 +5.4 84 +8  1020.2  1.1  750  293           
00 20.09.17 280 (З) 20000 м    10/8 600 м кучево-дожд., средняя 
[Cb calv|Ac As]
+7.3 +4.7 84 +8  1021.8  1.5  752  294  +7.3        влажная 
03 20.09.17 310 (СЗ) 20000 м    10/5 300 м кучево-дожд., средняя 
[Cb calv|Ac As]
+8.2 +4.9 80 +8  1022.2  0.6  752  293  +7.2         
06 20.09.17 220 (ЮЗ) 20000 м    10/6 600 м кучево-дожд., средняя 
[Cb calv|Ac As]
+9.2 +3.8 69 +9  1022.1  -0.2  752  292           
09 20.09.17 220 (ЮЗ) 20000 м    10/6 600 м кучево-дожд., средняя 
[Cb calv|Ac As]
+9.9 +3.6 65 +9  1021.3  -0.7  751  292           
12 20.09.17 190 (Ю) 20000 м    10/4 1000 м средняя 
[Sc|Ac As]
+9.6 +3.7 67 +11  1020.2  -1.1  750  292    +10.4       
15 20.09.17 150 (ЮВ) 20000 м  {ливн. осадки}  10/6 600 м кучево-дожд., средняя 
[Cb calv|Ac As]
+8.9 +4.8 75 +9  1017  -3.1  748  291           
18 20.09.17 170 (Ю) 20000 м  в посл. час ливневой дождь  10/10 600 м кучево-дожд. 
[Cb calv]
+8.8 +6.6 86 +8  1013.3  -3.7  745  290           
21 20.09.17 150 (ЮВ) 20000 м    ясно 
+8.3 +6.4 88 +9  1009.4  -3.8  743  289           
00 21.09.17 120 (ЮВ) 20000 м    10/6 600 м кучево-дожд., средняя 
[Cb calv|Ac As]
+8.4 +7.1 92 +9  1006.9  -2.4  741  288  +8.3    0.7    влажная 
03 21.09.17 260 (З) 20000 м    5/5 300 м 
[St]
+11.1 +8.9 86 +11  1006.4  -0.4  740  285  +7.6         
06 21.09.17 280 (З) 20000 м    10/10 300 м кучево-дожд. 
[Cb calv]
+13.1 +8.9 76 +12  1006  -0.2  740  283           
09 21.09.17 270 (З) 4-10{10}  20000 м  в посл. час ливневой дождь  10/8 300 м кучево-дожд., средняя 
[Cb calv|Ac As]
+12.8 +8.3 74 +12  1006.5  0.4  741  284           
Время (UTC), дата Ветер
(°,м/с) 
Видим.   Явления Облачность Т
(°С)
Тd
(°С)
f(%) Тe
(°С)
Pmin
(гПа)
dP
(гПа)
Po
(мм)
O2
(г/м3)
Тmin Tmax R s Состояние
почвы

Для получения пояснительной информации подведите курсор к названию столбца.

ПОГОДА в Кочки - архив

Всё, что Вы хотите узнать о погоде в Кочки - удобно и подробно!

Выберите нужную дату (начиная с 1 января 2015* года) и нажмите кнопку "Найти".
Будут отображены архивные сводки погоды по пункту Кочки, начиная с указанной даты.


Отображать данные в формате CSV (для использования в таблицах Excel)


Внимание! Наш архив погоды предназначен исключительно для личного некоммерческого использования в познавательных целях. Если Вам необходимы официальные справки о состоянии погоды (для производственных, юридических, коммерческих и т.п. целей), обращайтесь в органы Росгидромета.

*Примечание: данная дата относится к архиву по метеостанциям СССР (Россия, СНГ, Балтия).
Архив по метеостанциям Зарубежной Европы и Азии (кроме Китая) хранится 10 дней, по другим регионам земного шара (Китай, Африка, Америка, Австралия, Океания) - 1 день.

Кочки - район местоположения метеостанции


Название, широта, долгота, высота метеостанции:
Кочки 54.3°ш. 80.5°д. 164 м над ур. моря [Российская Федерация]

Дополнительная информация

В oтличие oт бoльшинства пoгoдных сайтoв мы публикуем пoдрoбную метеoинфoрмацию в детальнoм прoфессиoнальнoм фoрмате.

Характеристики температуры и влажнoсти вoздуха измеряются на высoте 2 м в тени вдали oт зданий и деревьев.
Скoрoсть ветра измеряется на высoте 10 м (на урoвне рoста челoвека скoрoсть ветра ниже в 1.5-2 раза). Если метеoстанция нахoдится в гoрoде или в лесу, тo скoрoсть ветра занижена на 2-4 м/с пo сравнению с oткрытым местoм. Скoрoсть ветра над акватoриями крупных рек и oзёр, а также на вершинах хoлмoв на 2-5 м/с выше, чем в oбычных услoвиях.
Атмoсфернoе давление в разных тoчках местнoсти мoжет значительнo oтличаться oт давления на метеoстанции, в зависимoсти oт услoвий рельефа (при пoдъёме на 10 м давление пoнижается примернo на 1 мм рт.ст.).